EXPRESS-AM8

Last updated on Sun Apr 12 2026 00:02:53 GMT+0000 (Coordinated Universal Time)

1 40895U 15048A 26101.37528975 -.00000110 00000+0 00000+0 0 9991 2 40895 0.0188 227.0750 0000054 62.2236 31.3990 1.00271943 38674
UTC large
Height (km)
Speed (km/s)
/
Latitude / Longitude
Inclination (degrees)
Orbital Period (minutes)
Azimuth
Elevation
Range (km)
Doppler Factor

Next 0 passes for location: London (51.5072 / 0.1276)

Sorry there are no passes over London.
EXPRESS-AM8